Date String (YYYY-MM-DD hh:mm:ss) UTC,Instrument flags,Ambient pressure (hPa),Sample flow (lpm),Bypass flow (lpm),Sample temperature (°C),Ambient temperature (°C),ASC tube jacket temperature (°C),LED temperature (°C),Box temperature (°C),Sample RH (%),Span deviation,Mass concentration (μg/m³),Mass concentration (μg/m³),Mass concentration (μg/m³)
DateTimeUTC,F1_M11,P_M11,Q1_M11,Q2_M11,T1_M11,T2_M11,T3_M11,T4_M11,T5_M11,U1_M11,ZSPAN_M11,X0_M11,X2_M11,X1_M11
2022-10-14 16:00:00,,0824.1,5.00,0.00,29.3,28.1,00.0,38.1,31.2,11.2,0000.0,0010.98,0004.71,0004.20
2022-10-14 16:01:00,,0824.0,5.00,0.00,29.3,28.1,00.0,38.1,31.2,10.6,0000.0,0011.28,0004.67,0004.16
2022-10-14 16:02:00,,0824.0,5.00,0.00,29.3,28.1,00.0,38.1,31.2,10.8,0000.0,0010.76,0004.61,0004.12
2022-10-14 16:03:00,,0824.0,5.01,0.00,29.4,28.1,00.0,38.1,31.2,10.9,0000.0,0011.22,0004.60,0004.11
2022-10-14 16:04:00,,0824.0,5.00,0.00,29.4,28.2,00.0,38.1,31.2,11.1,0000.0,0011.34,0004.62,0004.10
2022-10-14 16:05:00,,0823.9,5.00,0.00,29.4,28.2,00.0,38.1,31.2,11.0,0000.0,0011.36,0004.62,0004.11
2022-10-14 16:06:00,,0824.0,5.00,0.00,29.4,28.2,00.0,38.2,31.3,10.5,0000.0,0011.39,0004.62,0004.12
2022-10-14 16:07:00,,0823.9,5.00,0.00,29.4,28.2,00.0,38.2,31.3,10.5,0000.0,0010.57,0004.60,0004.11
2022-10-14 16:08:00,,0824.0,5.01,0.00,29.4,28.2,00.0,38.2,31.3,10.8,0000.0,0010.48,0004.57,0004.09
2022-10-14 16:09:00,,0824.0,5.01,0.00,29.4,28.2,00.0,38.2,31.3,11.0,0000.0,0010.09,0004.56,0004.08
2022-10-14 16:10:00,,0824.0,5.00,0.00,29.5,28.2,00.0,38.2,31.3,10.9,0000.0,0009.71,0004.52,0004.07
2022-10-14 16:11:00,,0824.0,5.00,0.00,29.5,28.2,00.0,38.2,31.4,11.1,0000.0,0009.60,0004.49,0004.06
2022-10-14 16:12:00,,0824.0,5.00,0.00,29.5,28.2,00.0,38.3,31.4,11.2,0000.0,0009.19,0004.49,0004.05
2022-10-14 16:13:00,,0823.9,5.00,0.00,29.5,28.2,00.0,38.3,31.4,11.4,0000.0,0008.81,0004.50,0004.06
2022-10-14 16:14:00,,0823.9,4.99,0.00,29.5,28.3,00.0,38.3,31.4,11.4,0000.0,0008.19,0004.47,0004.04
2022-10-14 16:15:00,,0824.0,5.00,0.00,29.5,28.2,00.0,38.3,31.4,11.5,0000.0,0007.97,0004.44,0004.03
2022-10-14 16:16:00,,0823.9,5.00,0.00,29.6,28.2,00.0,38.3,31.4,11.5,0000.0,0008.27,0004.42,0004.00
2022-10-14 16:17:00,,0824.0,5.02,0.00,29.6,28.3,00.0,38.3,31.4,11.8,0000.0,0008.68,0004.40,0003.97
2022-10-14 16:18:00,,0824.0,5.00,0.00,29.6,28.3,00.0,38.3,31.4,11.9,0000.0,0008.77,0004.43,0003.96
2022-10-14 16:19:00,,0824.0,5.00,0.00,29.6,28.3,00.0,38.3,31.4,11.9,0000.0,0008.63,0004.41,0003.94
2022-10-14 16:20:00,,0823.9,4.99,0.00,29.6,28.3,00.0,38.4,31.4,11.8,0000.0,0008.16,0004.36,0003.91
2022-10-14 16:21:00,,0823.9,5.00,0.00,29.6,28.3,00.0,38.4,31.4,11.8,0000.0,0008.21,0004.36,0003.89
2022-10-14 16:22:00,,0823.8,5.00,0.00,29.6,28.3,00.0,38.4,31.5,11.9,0000.0,0008.15,0004.37,0003.88
2022-10-14 16:23:00,,0823.8,5.01,0.00,29.6,28.3,00.0,38.4,31.5,11.9,0000.0,0008.07,0004.35,0003.86
2022-10-14 16:24:00,,0823.9,5.00,0.00,29.6,28.3,00.0,38.4,31.4,11.9,0000.0,0008.29,0004.39,0003.86
2022-10-14 16:25:00,,0823.9,4.99,0.00,29.6,28.3,00.0,38.4,31.4,12.2,0000.0,0009.49,0004.43,0003.88
2022-10-14 16:26:00,,0823.9,4.99,0.00,29.6,28.3,00.0,38.4,31.5,12.3,0000.0,0010.01,0004.49,0003.90
2022-10-14 16:27:00,,0823.9,5.02,0.00,29.6,28.4,00.0,38.4,31.5,12.2,0000.0,0009.80,0004.52,0003.93
2022-10-14 16:28:00,,0823.9,4.99,0.00,29.6,28.4,00.0,38.4,31.5,12.3,0000.0,0009.50,0004.56,0003.95
2022-10-14 16:29:00,,0823.8,4.99,0.00,29.7,28.4,00.0,38.4,31.5,12.7,0000.0,0009.60,0004.59,0003.97
2022-10-14 16:30:00,,0823.8,4.99,0.00,29.7,28.4,00.0,38.4,31.5,12.0,0000.0,0009.84,0004.66,0004.00
2022-10-14 16:31:00,,0823.8,5.01,0.00,29.7,28.4,00.0,38.5,31.5,12.4,0000.0,0010.22,0004.72,0004.03
2022-10-14 16:32:00,,0823.8,5.00,0.00,29.7,28.4,00.0,38.5,31.5,13.3,0000.0,0011.01,0004.78,0004.06
2022-10-14 16:33:00,,0823.8,4.99,0.00,29.7,28.5,00.0,38.5,31.5,12.9,0000.0,0011.63,0004.83,0004.10
2022-10-14 16:34:00,,0823.8,5.00,0.00,29.7,28.5,00.0,38.5,31.6,13.3,0000.0,0011.91,0004.89,0004.13
2022-10-14 16:35:00,,0823.9,5.01,0.00,29.7,28.5,00.0,38.5,31.6,13.2,0000.0,0011.83,0004.88,0004.16
2022-10-14 16:36:00,,0823.8,5.00,0.00,29.7,28.5,00.0,38.5,31.6,13.2,0000.0,0010.81,0004.88,0004.18
2022-10-14 16:37:00,,0823.8,5.00,0.00,29.7,28.5,00.0,38.5,31.6,13.7,0000.0,0010.31,0004.88,0004.20
2022-10-14 16:38:00,,0823.8,5.00,0.00,29.8,28.5,00.0,38.5,31.6,13.9,0000.0,0010.31,0004.92,0004.23
2022-10-14 16:39:00,,0823.8,5.01,0.00,29.8,28.6,00.0,38.5,31.6,14.0,0000.0,0010.38,0004.97,0004.26
2022-10-14 16:40:00,,0823.8,5.00,0.00,29.8,28.6,00.0,38.5,31.6,13.3,0000.0,0010.72,0005.02,0004.31
2022-10-14 16:41:00,,0823.7,4.99,0.00,29.8,28.6,00.0,38.6,31.6,12.9,0000.0,0010.74,0005.05,0004.34
2022-10-14 16:42:00,,0823.7,5.00,0.00,29.8,28.6,00.0,38.6,31.6,12.8,0000.0,0010.70,0005.07,0004.35
2022-10-14 16:43:00,,0823.7,5.00,0.00,29.8,28.6,00.0,38.6,31.7,13.2,0000.0,0010.69,0005.09,0004.37
2022-10-14 16:44:00,,0823.8,4.99,0.00,29.8,28.6,00.0,38.6,31.7,12.6,0000.0,0010.51,0005.12,0004.39
2022-10-14 16:45:00,,0823.8,4.99,0.00,29.8,28.7,00.0,38.6,31.7,11.9,0000.0,0010.52,0005.13,0004.39
2022-10-14 16:46:00,,0823.8,5.00,0.00,29.9,28.7,00.0,38.6,31.7,12.4,0000.0,0011.14,0005.15,0004.40
2022-10-14 16:47:00,,0823.7,5.02,0.00,29.9,28.7,00.0,38.6,31.7,11.8,0000.0,0011.92,0005.16,0004.40
2022-10-14 16:48:00,,0823.8,5.00,0.00,29.9,28.7,00.0,38.6,31.8,12.3,0000.0,0013.03,0005.23,0004.40
2022-10-14 16:49:00,,0823.8,5.00,0.00,29.9,28.8,00.0,38.7,31.7,12.1,0000.0,0013.00,0005.24,0004.39
2022-10-14 16:50:00,,0823.7,5.00,0.00,29.9,28.8,00.0,38.7,31.8,12.0,0000.0,0013.43,0005.23,0004.38
2022-10-14 16:51:00,,0823.8,5.00,0.00,29.9,28.8,00.0,38.7,31.7,11.8,0000.0,0013.30,0005.16,0004.35
2022-10-14 16:52:00,,0823.8,5.02,0.00,29.9,28.8,00.0,38.7,31.7,12.2,0000.0,0013.18,0005.10,0004.34
2022-10-14 16:53:00,,0823.7,4.99,0.00,30.0,28.8,00.0,38.7,31.8,12.7,0000.0,0013.18,0005.09,0004.35
2022-10-14 16:54:00,,0823.7,4.99,0.00,30.0,28.9,00.0,38.7,31.8,12.6,0000.0,0013.29,0005.06,0004.35
2022-10-14 16:55:00,,0823.7,5.00,0.00,30.0,28.9,00.0,38.7,31.8,12.7,0000.0,0012.82,0005.03,0004.35
2022-10-14 16:56:00,,0823.7,5.02,0.00,30.0,28.9,00.0,38.8,31.8,12.7,0000.0,0012.84,0005.06,0004.36
2022-10-14 16:57:00,,0823.8,5.00,0.00,30.0,28.9,00.0,38.8,31.8,12.8,0000.0,0013.18,0005.05,0004.35
2022-10-14 16:58:00,,0823.7,5.00,0.00,30.1,29.0,00.0,38.8,31.9,12.7,0000.0,0013.50,0005.08,0004.35
2022-10-14 16:59:00,,0823.7,5.00,0.00,30.1,29.0,00.0,38.8,31.9,12.8,0000.0,0013.00,0005.06,0004.35
